Regional Weather Roundup
Issued by NWS

Home | Current Version | Previous Version | Text Only | Print | Product List | Glossary On
Versions: 1 2 3 4 5 6 7 8 9 10 11 12 13 14 15 16 17 18 19 20 21 22 23 24 25 26 27 28 29 30 31 32 33 34 35 36 37 38 39 40 41 42 43 44 45 46 47 48 49 50
126
ASUS44 KLIX 281305
RWRLA
LOUISIANA WEATHER ROUNDUP
NATIONAL WEATHER SERVICE NEW ORLEANS LA
700 AM CST WED JAN 28 2015

NOTE: "FAIR" INDICATES FEW OR NO CLOUDS BELOW 12,000 FEET WITH NO
      SIGNIFICANT WEATHER AND/OR OBSTRUCTIONS TO VISIBILITY.
      SKY/WX - SKY CONDITION AND SIGNIFICANT WEATHER.
      TMP - AIR TEMPERATURE.    DP   - DEWPOINT TEMPERATURE.
      RH  - RELATIVE HUMIDITY.  PRES - PRESSURE.
      HX  - HEAT INDEX.         WCI  - WIND CHILL INDEX.

*  THESE STATIONS ARE NOT NWS OR FAA STATIONS AND ARE NOT UNDER
   NWS QUALITY CONTROL.

LAZ040-048-061>063-065-066-069-281400-
SOUTHEAST LOUISIANA

CITY           SKY/WX    TMP DP  RH WIND       PRES   REMARKS
N.O. AUDUBON   NOT AVBL
N.O. INTL ARPT CLEAR     50  37  61 E9        30.25R
N.O. LAKEFRONT CLEAR     52  39  61 E12       30.26R
N.O. DOWNTOWN* FAIR      52  36  54 NE7       30.25R
SLIDELL        CLEAR     38  35  89 NE3       30.26R
BATON ROUGE    CLEAR     42  35  76 CALM      30.25R
BOOTHVILLE     CLEAR     51  46  83 NE8       30.25R
BELLE CHASSE   CLEAR     39  36  89 NE5       30.25R
BOGALUSA*        N/A     36  33  90 CALM      30.29R
GALLIANO*      SUNNY     52  43  73 MISG      30.25R
NEW ROADS*     FAIR      45  36  70 E5        30.24R
GONZALES*      FAIR      43  38  82 CALM      30.25R
HAMMOND*       CLEAR     43  36  75 CALM      30.26S
HOUMA*         CLEAR     43  37  81 NE5       30.24R
PORT FOURCHON* SUNNY     55  46  71 NE9G17    30.27R

$$

LAZ041-044-053-054-281400-
SOUTHWEST LOUISIANA

CITY           SKY/WX    TMP DP  RH WIND       PRES   REMARKS
LAKE CHARLES   CLEAR     43  41  93 CALM      30.21R
LAFAYETTE      CLEAR     49  37  63 E3        30.23R
PATTERSON      CLEAR     46  37  71 E6        30.24R
SALT POINT       N/A     48  39  71 E5        30.22R
NEW IBERIA     CLEAR     48  37  65 E6        30.23R
CHENAULT AIRPK CLEAR     43  43 100 CALM      30.20S

$$

LAZ027-028-281400-
CENTRAL LOUISIANA

CITY           SKY/WX    TMP DP  RH WIND       PRES   REMARKS
FORT POLK      CLEAR     41  40  95 E5        30.20R
ALEXANDRIA INT CLEAR     39  37  92 E3        30.21R
ALEXANDRIA     CLEAR     36  33  89 CALM      30.22R

$$

LAZ001-002-281400-
NORTHWEST LOUISIANA

CITY           SKY/WX    TMP DP  RH WIND       PRES   REMARKS
SHREVEPORT     CLEAR     44  39  82 SE5       30.18R
BARKSDALE AFB  CLEAR     42  36  77 SE7       30.19R
DTN SHREVEPORT CLEAR     43  35  73 E6        30.18R

$$

LAZ014-016-281400-
NORTHEAST LOUISIANA

CITY           SKY/WX    TMP DP  RH WIND       PRES   REMARKS
MONROE         CLEAR     37  35  92 CALM      30.24R
TALLULAH       CLEAR     42  36  79 E10       30.25R

$$




USA.gov is the U.S. government's official web portal to all federal, state and local government web resources and services.